Regional Weather Roundup
Issued by NWS Midland/Odessa, TX

Home | Current Version | Previous Version | Text Only | Print | Product List | Glossary On
Versions: 1 2 3 4 5 6 7 8 9 10 11 12 13 14 15 16 17 18 19 20 21 22 23 24 25 26 27 28 29 30 31 32 33 34 35 36 37 38 39 40 41 42 43 44 45 46 47 48 49 50
000
ASUS44 KMAF 241610
RWRMAF
MIDLAND AREA WEATHER ROUNDUP
NATIONAL WEATHER SERVICE MIDLAND TX
1100 AM CDT TUE MAY 24 2016

...IN SOUTHWEST TEXAS AND SOUTHEAST NEW MEXICO...

CITY           SKY/WX    TMP DP  RH WIND       PRES   REMARKS
ALPINE         CLOUDY    81  26  13 W15       30.11R
ANDREWS        FAIR      81  61  49 W9        29.93R
ARTESIA        SUNNY     84  23  10 SW14G20   29.94S
BIG SPRING     PTSUNNY   75  64  68 S17       29.94S
CARLSBAD       SUNNY     86  23  10 W23G31    29.92S
DRYDEN         NOT AVBL
FORT STOCKTON  MOSUNNY   87  36  16 W12       29.95R
GUAD PASS      NOT AVBL
HOBBS          SUNNY     82  39  21 W17       29.94F
MARFA          CLOUDY    77  26  15 SW12      30.10S
MIDLAND AIRPK  SUNNY     83  63  49 S13       29.91F
MIDLAND INTL   SUNNY     83  63  50 SW12G25   29.91S
ODESSA         SUNNY     84  57  39 W10       29.92S
PECOS          CLOUDY    89  24   9 W17G23    29.91S
PRESIDIO       FAIR      82  56  41 SE6       29.99R
SEMINOLE       SUNNY     81  56  42 SW9       29.94R
SNYDER           N/A     76  68  77 S16       29.93S
WINK           SUNNY     86  44  23 MISG      29.90S
$$
...OTHER STATIONS IN TEXAS...

CITY           SKY/WX    TMP DP  RH WIND       PRES   REMARKS
ABILENE        PTSUNNY   79  69  71 S22G29    29.92S
AMARILLO       SUNNY     78  62  57 S17       29.92S
AUSTIN         PTSUNNY   83  73  72 S13       29.95S
BROWNSVILLE    CLOUDY    85  77  77 SE16      29.90R
CORPUS CHRISTI CLOUDY    85  78  80 SE14      29.91R
DALLAS FTW     LGT RAIN  76  72  87 SE12      29.97S FOG
DEL RIO        CLOUDY    79  73  82 SE10      29.88R
EL PASO        MOSUNNY   79  27  14 W12G18    30.01R
HOUSTON INT    PTSUNNY   82  74  76 SE10      29.99R
LUBBOCK        PTSUNNY   78  66  66 S16       29.93R
SAN ANGELO     CLOUDY    80  69  69 S17G24    29.92R
SAN ANTONIO    CLOUDY    79  72  79 SE12      29.94F
WACO           PTSUNNY   83  71  67 S12       29.97S
WICHITA FALLS  NOT AVBL
$$
...OTHER LOCATIONS IN NEW MEXICO...

CITY           SKY/WX    TMP DP  RH WIND       PRES   REMARKS
ALAMAGORDO     SUNNY     75  23  14 CALM      30.03R
ALBUQUERQUE    MOSUNNY   71  22  15 NW3       30.03S
CANNON AFB     MOSUNNY   77  47  35 W8        29.95R
CLOVIS         SUNNY     75  52  43 SW10      29.95S
HOLLOMAN AFB   SUNNY     78  26  14 W8        30.00S
ROSWELL        SUNNY     82  28  14 VRB7      29.92F
RUIDOSO          N/A     66  16  14 SW22G32   30.13R
SANTA FE       SUNNY     69  21  16 W9        30.05S
TRUTH OR CONSE SUNNY     73  24  16 S10       30.01S
TUCUMCARI      SUNNY     79  29  16 CALM      29.91S
$$




USA.gov is the U.S. government's official web portal to all federal, state and local government web resources and services.